Flag for Kuwait Weather past 2 weeks in Kuwait City, Kuwait

Now
111 °F

Clear.


Feels Like: 108 °F
Forecast: 94 / 109 °F
Wind: 10 mph from North

Location: Kuwait International Airport

Current Time: Aug 29, 2015 at 10:08:25 PM

Latest Report: Aug 29, 2015 at 9:00 PM


Visibility: 10 mi

Pressure: 29.65 "Hg

Humidity: 13%

Dew point: 50 °F

Historic Weather in Kuwait City — Graph

°F

Kuwait City temperature yesterday

Maximum temperature yesterday: 118 °F (at 1:00 PM)
Minimum temperature yesterday: 97 °F (at 4:00 AM)
Average temperature yesterday: 108 °F

Past Weeks' High & Low Weather Summary

 TemperatureHumidityPressure
High120 °F (Aug 15, 2:00 PM)71% (Aug 22, 2:30 AM)29.68 "Hg (Aug 22, 2:30 AM)
Low84 °F (Aug 22, 5:30 AM)5% (Aug 22, 2:00 PM)29.47 "Hg (Aug 15, 3:30 PM)
Average104 °F22%29.56 "Hg
* Reported Aug 14 9:30 PM — Aug 29 9:00 PM, Kuwait City, Weather by CustomWeather, © 2015

Note: Actual official high and low records may vary slightly from our data, if they occured in-between our weather recording intervals... More about our weather records

Advertising

Kuwait City weather history for previous 24 hours

 ConditionsComfort  
Time TempWeatherWind HumidityBarometerVisibility
9:00 PM
Sat, Aug 29
111 °FClear.10 mph13%29.65 "Hg10 mi
8:30 PM111 °FClear.9 mph12%29.65 "Hg10 mi
8:00 PM111 °FClear.9 mph12%29.62 "Hg10 mi
7:30 PM111 °FClear.10 mph13%29.62 "Hg10 mi
7:00 PM113 °FClear.9 mph12%29.62 "Hg10 mi
6:30 PM113 °FClear.12 mph11%29.59 "Hg10 mi
6:00 PM115 °FSunny.14 mph11%29.59 "Hg10 mi
5:00 PM117 °FSunny.14 mph9%29.59 "Hg10 mi
4:30 PM118 °FSunny.13 mph9%29.59 "Hg10 mi
3:59 PM118 °FSunny.14 mph9%29.59 "Hg10 mi
3:30 PM118 °FSunny.17 mph9%29.59 "Hg10 mi
3:00 PM120 °FSunny.15 mph8%29.59 "Hg10 mi
2:00 PM118 °FSunny.12 mph8%29.62 "Hg10 mi
1:00 PM118 °FSunny.14 mph8%29.62 "Hg10 mi
12:00 PM117 °FSunny.15 mph8%29.62 "Hg10 mi
10:30 AM111 °FSunny.16 mph10%29.65 "Hg10 mi
10:00 AM109 °FSunny.16 mph12%29.65 "Hg10 mi
9:00 AM106 °FSunny.14 mph13%29.65 "Hg10 mi
8:30 AM104 °FSunny.14 mph15%29.65 "Hg10 mi
8:00 AM102 °FSunny.12 mph16%29.65 "Hg10 mi
7:30 AM100 °FSunny.14 mph18%29.65 "Hg10 mi
7:00 AM99 °FSunny.12 mph19%29.65 "Hg10 mi
6:00 AM99 °FSunny.10 mph21%29.62 "Hg10 mi
5:30 AM99 °FSunny.12 mph21%29.62 "Hg10 mi
5:00 AM99 °FClear.9 mph22%29.59 "Hg10 mi
4:30 AM99 °FClear.9 mph22%29.59 "Hg10 mi
4:00 AM99 °FClear.10 mph21%29.59 "Hg10 mi
3:30 AM99 °FClear.7 mph22%29.59 "Hg10 mi
3:00 AM99 °FClear.8 mph22%29.59 "Hg10 mi
2:30 AM100 °FClear.10 mph21%29.59 "Hg10 mi
2:00 AM100 °FClear.8 mph21%29.59 "Hg10 mi
1:30 AM102 °FClear.10 mph18%29.59 "Hg10 mi
1:00 AM102 °FClear.10 mph18%29.59 "Hg10 mi
12:00 AM104 °FClear.12 mph17%29.62 "Hg10 mi
11:00 PM
Fri, Aug 28
104 °FClear.10 mph17%29.62 "Hg10 mi
10:30 PM106 °FClear.10 mph17%29.62 "Hg10 mi
10:00 PM106 °FClear.9 mph14%29.62 "Hg10 mi
Weather by CustomWeather, © 2015

See weather overviewHow to use our weather pages